Voltar ao catálogo

STARLINK-5947

AtivoComunicaçõesVLEO
NORAD 55989·PAYLOAD·🇺🇸 United States

Lançado Mar 24, 2023 de Cape Canaveral Space Force Station

Loading…

Próximas Passagens (próximas 24 horas)

TLE

AtualizadoSource: CelesTrak SupGP

Época: Sep 15, 2026, 02:36 UTC

1 55989C 23042D   26258.10881944 -.00023415  00000+0 -84794-3 0  2584
2 55989  43.0040  69.8292 0002015 275.5486 282.9862 15.27595449    19

Acompanhe STARLINK-5947 em tempo real com AllMySat

Download on the App Store